User: anonymous   Login
Location: PFO Observatory
(45.2937°N, 66.0991°W)
Time: 12:53:54
(UTC-03:00)
Language:

Cosmos 1151 Rocket - Orbit

View from above orbital plane
View from above orbital plane
View from above satellite
View from above satellite

Ground track
Ground track

The orbit data is extracted from the following two-line orbital elements,

1 11672U 80005B   15117.45316797  .00000686  00000-0  72638-4 0  9997
2 11672 082.5140 097.0800 0017821 036.3956 323.8469 14.87562051907161
Epoch (UTC): 27 April 2015 10:52:33
Eccentricity: 0.0017821
inclination: 82.5140°
perigee height: 593 km
apogee height: 618 km
right ascension of ascending node: 97.0800°
argument of perigee: 36.3956°
revolutions per day: 14.87562051
mean anomaly at epoch: 323.8469°
orbit number at epoch: 90716

The dashed part of the orbit path shows where the satellite is in the earth's shadow,  

DLR